パンスターズ彗星

C/2025 A4 ( PanSTARRS )

English version
Home page
Updated on August 10, 2025

---------------------------------------------------------------------

・ プロフィール

発見日 2025年1月3日
発見光度 21.0等
発見者 Pan-STARRS 2 telescope (Haleakala)

・ 写真集

・ 軌道要素

Epoch 2025 May 5.0 TT = JDT 2460800.5
T 2025 Jan. 13.14547 TT                                 Pike
q   3.8242150            (2000.0)            P               Q
n   0.02683313     Peri.  102.79522     -0.85253179     -0.15857168
a  11.0498200      Node    69.91330     -0.13602131     -0.85272606
e   0.6539116      Incl.   32.02549     +0.50466598     -0.49770804
P  36.7
From 101 observations 2024 Dec. 21-2025 June 17, mean residual 0".5.

・ 光度変化

        m1 = 11.5 + 5 logΔ + 10.0 log r

---------------------------------------------------------------------

軌道要素はM.P.E.C. 2025-M120に掲載されたものです。
光度グラフはComet for Windowsで作成したものです。

---------------------------------------------------------------------

Copyright(C) Seiichi Yoshida (comet@aerith.net). All rights reserved.